| time (UTC) | temp F | wind direction | speed knots | gust knots | rain 1hr in | rain 24hr in | rain mn in | humidity % | barometer mb |
| 20260503215317 | 60 | 264 | 5.2 | 11.3 | 0.00 | 0.00 | 0.00 | 49 | 1015.6 |
| 20260503214815 | 60 | 211 | 2.6 | 6.1 | 0.00 | 0.00 | 0.00 | 52 | 1015.7 |
| 20260503214312 | 60 | 225 | 7.0 | 8.7 | 0.00 | 0.00 | 0.00 | 51 | 1016.1 |
| 20260503213810 | 60 | 279 | 4.3 | 8.7 | 0.00 | 0.00 | 0.00 | 51 | 1016.0 |
| 20260503213307 | 60 | 260 | 5.2 | 7.0 | 0.00 | 0.00 | 0.00 | 52 | 1016.3 |
| 20260503212804 | 60 | 283 | 7.0 | 12.2 | 0.00 | 0.00 | 0.00 | 52 | 1016.4 |
| 20260503212302 | 60 | 293 | 7.0 | 12.2 | 0.00 | 0.00 | 0.00 | 52 | 1016.6 |
| 20260503211759 | 60 | 232 | 9.6 | 11.3 | 0.00 | 0.00 | 0.00 | 52 | 1016.4 |
| 20260503211255 | 60 | 221 | 4.3 | 7.0 | 0.00 | 0.00 | 0.00 | 52 | 1016.6 |
| 20260503210755 | 59 | 261 | 6.1 | 12.2 | 0.00 | 0.00 | 0.00 | 52 | 1016.5 |
| 20260503210253 | 59 | 260 | 7.0 | 7.8 | 0.00 | 0.00 | 0.00 | 53 | 1016.7 |
| 20260503205748 | 60 | 258 | 5.2 | 9.6 | 0.00 | 0.00 | 0.00 | 53 | 1016.8 |
| 20260503205245 | 60 | 198 | 6.1 | 7.0 | 0.00 | 0.00 | 0.00 | 52 | 1016.9 |
| 20260503204741 | 60 | 296 | 4.3 | 7.8 | 0.00 | 0.00 | 0.00 | 52 | 1016.8 |
| 20260503204239 | 60 | 112 | 0.9 | 7.8 | 0.00 | 0.00 | 0.00 | 54 | 1017.0 |
| 20260503203736 | 60 | 240 | 7.0 | 12.2 | 0.00 | 0.00 | 0.00 | 52 | 1016.7 |
| 20260503203234 | 60 | 300 | 2.6 | 6.1 | 0.00 | 0.00 | 0.00 | 54 | 1016.9 |
| 20260503202730 | 59 | 277 | 9.6 | 11.3 | 0.00 | 0.00 | 0.00 | 50 | 1017.4 |
| 20260503202228 | 59 | 246 | 7.0 | 8.7 | 0.00 | 0.00 | 0.00 | 49 | 1017.0 |
| 20260503201726 | 59 | 267 | 5.2 | 8.7 | 0.00 | 0.00 | 0.00 | 52 | 1017.5 |
| 20260503201223 | 60 | 222 | 5.2 | 9.6 | 0.00 | 0.00 | 0.00 | 51 | 1017.5 |
| 20260503200719 | 59 | 207 | 7.0 | 9.6 | 0.00 | 0.00 | 0.00 | 53 | 1017.5 |
| 20260503200216 | 59 | 309 | 4.3 | 11.3 | 0.00 | 0.00 | 0.00 | 49 | 1017.5 |
| 20260503195713 | 59 | 190 | 6.1 | 11.3 | 0.00 | 0.00 | 0.00 | 49 | 1017.4 |
| 20260503195210 | 60 | 226 | 6.1 | 8.7 | 0.00 | 0.00 | 0.00 | 49 | 1017.7 |
| 20260503194707 | 59 | 196 | 5.2 | 7.8 | 0.00 | 0.00 | 0.00 | 49 | 1017.6 |
| 20260503194203 | 59 | 268 | 6.1 | 7.8 | 0.00 | 0.00 | 0.00 | 49 | 1017.9 |
| 20260503193659 | 59 | 229 | 5.2 | 7.0 | 0.00 | 0.00 | 0.00 | 49 | 1018.2 |
| 20260503193155 | 59 | 233 | 6.1 | 9.6 | 0.00 | 0.00 | 0.00 | 49 | 1018.1 |
| 20260503192651 | 58 | 240 | 9.6 | 11.3 | 0.00 | 0.00 | 0.00 | 50 | 1018.3 |
| 20260503192146 | 58 | 218 | 6.1 | 8.7 | 0.00 | 0.00 | 0.00 | 49 | 1018.3 |
| 20260503191643 | 59 | 238 | 7.8 | 11.3 | 0.00 | 0.00 | 0.00 | 47 | 1018.3 |
| 20260503191141 | 59 | 216 | 2.6 | 6.1 | 0.00 | 0.00 | 0.00 | 52 | 1018.5 |
| 20260503190637 | 58 | 206 | 2.6 | 8.7 | 0.00 | 0.00 | 0.00 | 51 | 1018.5 |
| 20260503190134 | 58 | 189 | 2.6 | 5.2 | 0.00 | 0.00 | 0.00 | 49 | 1018.6 |
| 20260503185631 | 57 | 229 | 4.3 | 9.6 | 0.00 | 0.00 | 0.00 | 50 | 1018.9 |
| 20260503185126 | 58 | 262 | 2.6 | 6.1 | 0.00 | 0.00 | 0.00 | 47 | 1018.7 |
| 20260503184621 | 58 | 282 | 2.6 | 4.3 | 0.00 | 0.00 | 0.00 | 49 | 1019.0 |
| 20260503184118 | 57 | 151 | 3.5 | 6.1 | 0.00 | 0.00 | 0.00 | 50 | 1018.8 |
| 20260503183615 | 58 | 215 | 7.8 | 9.6 | 0.00 | 0.00 | 0.00 | 47 | 1019.0 |
| 20260503183112 | 57 | 262 | 3.5 | 7.0 | 0.00 | 0.00 | 0.00 | 47 | 1019.2 |
| 20260503182610 | 57 | 290 | 4.3 | 5.2 | 0.00 | 0.00 | 0.00 | 48 | 1019.3 |
| 20260503182108 | 57 | 258 | 4.3 | 7.0 | 0.00 | 0.00 | 0.00 | 45 | 1019.5 |
| 20260503181605 | 58 | 173 | 2.6 | 6.1 | 0.00 | 0.00 | 0.00 | 48 | 1019.2 |
| 20260503181101 | 57 | 286 | 3.5 | 4.3 | 0.00 | 0.00 | 0.00 | 47 | 1019.4 |
| 20260503180559 | 56 | 279 | 3.5 | 5.2 | 0.00 | 0.00 | 0.00 | 50 | 1019.7 |
| 20260503180056 | 57 | 208 | 6.1 | 8.7 | 0.00 | 0.00 | 0.00 | 46 | 1019.5 |
| 20260503175553 | 56 | 262 | 3.5 | 7.0 | 0.00 | 0.00 | 0.00 | 47 | 1019.6 |
| 20260503175050 | 57 | 272 | 4.3 | 6.1 | 0.00 | 0.00 | 0.00 | 48 | 1019.6 |
| 20260503174547 | 56 | 91 | 2.6 | 6.1 | 0.00 | 0.00 | 0.00 | 48 | 1019.5 |
| 20260503174044 | 55 | 305 | 5.2 | 7.0 | 0.00 | 0.00 | 0.00 | 48 | 1019.5 |
| 20260503173539 | 55 | 171 | 0.0 | 4.3 | 0.00 | 0.00 | 0.00 | 47 | 1019.9 |
| 20260503173035 | 55 | 218 | 5.2 | 8.7 | 0.00 | 0.00 | 0.00 | 49 | 1020.1 |
| 20260503172533 | 55 | 257 | 7.8 | 9.6 | 0.00 | 0.00 | 0.00 | 49 | 1020.2 |
| 20260503172030 | 55 | 121 | 2.6 | 4.3 | 0.00 | 0.00 | 0.00 | 51 | 1020.1 |
| 20260503171526 | 55 | 168 | 4.3 | 5.2 | 0.00 | 0.00 | 0.00 | 48 | 1020.1 |
| 20260503171024 | 55 | 271 | 3.5 | 5.2 | 0.00 | 0.00 | 0.00 | 49 | 1020.5 |
| 20260503170520 | 54 | 99 | 0.0 | 2.6 | 0.00 | 0.00 | 0.00 | 48 | 1020.3 |
| 20260503150912 | 51 | 183 | 2.6 | 2.6 | 0.00 | 0.00 | 0.00 | 48 | 1021.8 |
| 20260503150409 | 52 | 232 | 1.7 | 2.6 | 0.00 | 0.00 | 0.00 | 49 | 1021.8 |
| 20260503131302 | 46 | 125 | 0.0 | 1.7 | 0.00 | 0.00 | 0.00 | 78 | 1021.7 |
| 20260503130759 | 46 | 93 | 0.0 | 1.7 | 0.00 | 0.00 | 0.00 | 77 | 1021.7 |
| 20260503130257 | 45 | 132 | 0.0 | 0.9 | 0.00 | 0.00 | 0.00 | 80 | 1021.5 |
| 20260503110650 | 33 | 125 | 0.0 | 0.0 | 0.00 | 0.00 | 0.00 | 99 | 1020.8 |
| 20260503110148 | 33 | 125 | 0.0 | 0.0 | 0.00 | 0.00 | 0.00 | 99 | 1020.3 |
| 20260503100114 | 34 | 101 | 0.0 | 0.0 | 0.00 | 0.00 | 0.00 | 99 | 1019.9 |
| 20260503081504 | 37 | 120 | 0.0 | 0.0 | 0.00 | 0.00 | 0.00 | 94 | 1019.4 |
| 20260503081001 | 37 | 120 | 0.0 | 0.0 | 0.00 | 0.00 | 0.00 | 94 | 1019.4 |
| 20260503080457 | 37 | 110 | 0.0 | 0.0 | 0.00 | 0.00 | 0.00 | 95 | 1019.5 |
| 20260503072933 | 39 | 115 | 0.9 | 0.9 | 0.00 | 0.00 | 0.00 | 95 | 1019.5 |
| 20260503072431 | 39 | 85 | 0.9 | 1.7 | 0.00 | 0.00 | 0.00 | 95 | 1019.2 |
| 20260503071928 | 39 | 11 | 2.6 | 2.6 | 0.00 | 0.00 | 0.00 | 95 | 1019.1 |
| 20260503071425 | 39 | 49 | 0.9 | 4.3 | 0.00 | 0.00 | 0.00 | 94 | 1019.1 |
| 20260503070921 | 39 | 32 | 1.7 | 4.3 | 0.00 | 0.00 | 0.00 | 94 | 1018.9 |
| 20260503070418 | 40 | 36 | 2.6 | 2.6 | 0.00 | 0.00 | 0.00 | 95 | 1018.9 |
| 20260503054832 | 41 | 74 | 0.9 | 1.7 | 0.00 | 0.00 | 0.00 | 89 | 1018.4 |
| 20260503054327 | 41 | 65 | 0.9 | 0.9 | 0.00 | 0.00 | 0.00 | 90 | 1018.5 |
| 20260503053826 | 41 | 88 | 0.9 | 0.9 | 0.00 | 0.00 | 0.00 | 89 | 1018.6 |
| 20260503053324 | 41 | 103 | 0.0 | 0.0 | 0.00 | 0.00 | 0.00 | 89 | 1018.6 |
| 20260503052820 | 41 | 126 | 0.0 | 0.0 | 0.00 | 0.00 | 0.00 | 88 | 1018.5 |
| 20260503052317 | 41 | 121 | 0.0 | 0.9 | 0.00 | 0.00 | 0.00 | 87 | 1018.7 |
| 20260503051812 | 41 | 134 | 0.0 | 0.0 | 0.00 | 0.00 | 0.00 | 86 | 1018.8 |
| 20260503051309 | 41 | 131 | 0.0 | 0.9 | 0.00 | 0.00 | 0.00 | 86 | 1018.7 |
| 20260503050806 | 42 | 107 | 0.0 | 0.0 | 0.00 | 0.00 | 0.00 | 86 | 1018.4 |
| 20260503050302 | 42 | 110 | 0.0 | 0.0 | 0.00 | 0.00 | 0.00 | 85 | 1018.5 |
| 20260503045800 | 42 | 105 | 0.0 | 0.9 | 0.00 | 0.00 | 0.00 | 84 | 1018.8 |
| 20260503045258 | 42 | 65 | 0.9 | 0.9 | 0.00 | 0.00 | 0.00 | 84 | 1018.5 |
| 20260503044753 | 42 | 133 | 0.0 | 0.9 | 0.00 | 0.00 | 0.00 | 83 | 1018.4 |
| 20260503044251 | 42 | 117 | 0.0 | 0.9 | 0.00 | 0.00 | 0.00 | 82 | 1018.4 |
| 20260503043748 | 42 | 105 | 0.0 | 0.9 | 0.00 | 0.00 | 0.00 | 82 | 1018.2 |
| 20260503043245 | 42 | 130 | 0.0 | 1.7 | 0.00 | 0.00 | 0.00 | 82 | 1018.5 |
| 20260503042741 | 43 | 144 | 0.9 | 1.7 | 0.00 | 0.00 | 0.00 | 82 | 1018.3 |
| 20260503042238 | 43 | 132 | 0.9 | 0.9 | 0.00 | 0.00 | 0.00 | 81 | 1018.5 |
| 20260503041733 | 43 | 147 | 0.0 | 0.0 | 0.00 | 0.00 | 0.00 | 81 | 1018.2 |
| 20260503041232 | 43 | 136 | 0.0 | 0.9 | 0.00 | 0.00 | 0.00 | 81 | 1018.1 |
| 20260503040729 | 43 | 134 | 0.0 | 0.0 | 0.00 | 0.00 | 0.00 | 81 | 1018.1 |
| 20260503040227 | 43 | 123 | 0.9 | 1.7 | 0.00 | 0.00 | 0.00 | 81 | 1018.0 |
| 20260503035723 | 43 | 150 | 0.0 | 0.9 | 0.00 | 0.00 | 0.00 | 81 | 1018.2 |
| 20260503035221 | 43 | 137 | 0.0 | 0.0 | 0.00 | 0.00 | 0.00 | 80 | 1018.1 |
| 20260503034718 | 44 | 130 | 0.0 | 0.0 | 0.00 | 0.00 | 0.00 | 79 | 1018.0 |
| 20260503034215 | 44 | 163 | 0.0 | 0.9 | 0.00 | 0.00 | 0.00 | 79 | 1018.0 |
| 20260503033712 | 44 | 187 | 0.9 | 0.9 | 0.00 | 0.00 | 0.00 | 78 | 1017.9 |
| 20260503033209 | 44 | 128 | 0.0 | 0.0 | 0.00 | 0.00 | 0.00 | 79 | 1017.9 |
| 20260503032708 | 44 | 146 | 0.0 | 0.0 | 0.00 | 0.00 | 0.00 | 79 | 1017.8 |
| 20260503032206 | 44 | 136 | 0.0 | 0.0 | 0.00 | 0.00 | 0.00 | 79 | 1018.0 |
| 20260503031702 | 45 | 135 | 0.9 | 1.7 | 0.00 | 0.00 | 0.00 | 78 | 1018.2 |
| 20260503031201 | 45 | 117 | 0.0 | 0.9 | 0.00 | 0.00 | 0.00 | 78 | 1017.8 |
| 20260503030656 | 45 | 134 | 0.0 | 0.9 | 0.00 | 0.00 | 0.00 | 77 | 1018.1 |
| 20260503030153 | 46 | 110 | 0.0 | 0.9 | 0.00 | 0.00 | 0.00 | 76 | 1017.9 |
| 20260503025650 | 46 | 116 | 0.0 | 0.0 | 0.00 | 0.00 | 0.00 | 76 | 1018.0 |
| 20260503025148 | 46 | 239 | 0.9 | 1.7 | 0.00 | 0.00 | 0.00 | 75 | 1017.9 |
| 20260503024644 | 46 | 108 | 0.9 | 0.9 | 0.00 | 0.00 | 0.00 | 75 | 1018.1 |
| 20260503024142 | 46 | 131 | 0.9 | 2.6 | 0.00 | 0.00 | 0.00 | 74 | 1017.9 |
| 20260503023639 | 47 | 207 | 0.9 | 0.9 | 0.00 | 0.00 | 0.00 | 74 | 1017.9 |
| 20260503023136 | 47 | 69 | 0.9 | 0.9 | 0.00 | 0.00 | 0.00 | 73 | 1018.0 |
| 20260503022632 | 47 | 203 | 0.9 | 1.7 | 0.00 | 0.00 | 0.00 | 73 | 1017.6 |
| 20260503022132 | 47 | 298 | 2.6 | 4.3 | 0.00 | 0.00 | 0.00 | 72 | 1017.7 |
| 20260503021629 | 47 | 346 | 0.9 | 1.7 | 0.00 | 0.00 | 0.00 | 73 | 1017.7 |
| 20260503021125 | 47 | 136 | 0.9 | 2.6 | 0.00 | 0.00 | 0.00 | 72 | 1017.7 |
| 20260503020622 | 47 | 75 | 0.9 | 2.6 | 0.00 | 0.00 | 0.00 | 73 | 1017.6 |
| 20260503020120 | 47 | 31 | 1.7 | 2.6 | 0.00 | 0.00 | 0.00 | 73 | 1017.5 |
| 20260503015616 | 47 | 37 | 2.6 | 2.6 | 0.00 | 0.00 | 0.00 | 74 | 1017.5 |
| 20260503015114 | 47 | 131 | 0.0 | 0.0 | 0.00 | 0.00 | 0.00 | 75 | 1017.5 |
| 20260503014609 | 47 | 139 | 0.0 | 0.9 | 0.00 | 0.00 | 0.00 | 74 | 1017.3 |
| 20260503014107 | 47 | 236 | 1.7 | 2.6 | 0.00 | 0.00 | 0.00 | 74 | 1017.6 |
| 20260503013604 | 47 | 50 | 0.0 | 0.9 | 0.00 | 0.00 | 0.00 | 76 | 1017.1 |
| 20260503013102 | 47 | 196 | 0.0 | 0.0 | 0.00 | 0.00 | 0.00 | 76 | 1017.0 |
| 20260503012559 | 47 | 175 | 0.9 | 1.7 | 0.00 | 0.00 | 0.00 | 74 | 1017.4 |
| 20260503012056 | 47 | 274 | 0.0 | 0.0 | 0.00 | 0.00 | 0.00 | 76 | 1016.8 |
| 20260503011552 | 48 | 274 | 0.0 | 0.0 | 0.00 | 0.00 | 0.00 | 73 | 1016.6 |
| 20260503011050 | 48 | 274 | 0.0 | 0.0 | 0.00 | 0.00 | 0.00 | 73 | 1016.6 |
| 20260503010545 | 48 | 274 | 0.0 | 0.0 | 0.00 | 0.00 | 0.00 | 73 | 1016.7 |
| 20260503010043 | 48 | 274 | 0.0 | 0.0 | 0.00 | 0.00 | 0.00 | 73 | 1016.5 |
| 20260503005540 | 48 | 274 | 0.0 | 0.0 | 0.00 | 0.00 | 0.00 | 71 | 1016.6 |
| 20260503005038 | 48 | 274 | 0.0 | 0.0 | 0.00 | 0.00 | 0.00 | 72 | 1016.5 |
| 20260503004533 | 48 | 274 | 0.0 | 0.0 | 0.00 | 0.00 | 0.00 | 71 | 1016.6 |
| 20260503004032 | 48 | 274 | 0.0 | 0.0 | 0.00 | 0.00 | 0.00 | 70 | 1016.6 |
| 20260503003528 | 48 | 274 | 0.0 | 0.0 | 0.00 | 0.00 | 0.00 | 69 | 1016.4 |
| 20260503003025 | 48 | 274 | 0.9 | 0.9 | 0.00 | 0.00 | 0.00 | 68 | 1016.6 |
| 20260503002522 | 48 | 129 | 0.9 | 0.9 | 0.00 | 0.00 | 0.00 | 67 | 1016.2 |
| 20260503002019 | 49 | 97 | 0.0 | 0.9 | 0.00 | 0.00 | 0.00 | 67 | 1016.1 |
| 20260503001515 | 49 | 166 | 0.9 | 0.9 | 0.00 | 0.00 | 0.00 | 65 | 1016.2 |
| 20260503001013 | 49 | 152 | 0.0 | 0.0 | 0.00 | 0.00 | 0.00 | 66 | 1016.0 |
| 20260503000510 | 50 | 135 | 0.0 | 0.9 | 0.00 | 0.00 | 0.00 | 65 | 1016.1 |
| 20260503000007 | 50 | 120 | 0.9 | 0.9 | 0.00 | 0.00 | 0.00 | 64 | 1015.9 |
| 20260502235503 | 50 | 162 | 0.9 | 0.9 | 0.00 | 0.00 | 0.00 | 63 | 1016.0 |
| 20260502235001 | 51 | 58 | 1.7 | 2.6 | 0.00 | 0.00 | 0.00 | 61 | 1016.0 |
| 20260502234457 | 52 | 130 | 0.0 | 0.9 | 0.00 | 0.00 | 0.00 | 62 | 1015.9 |
| 20260502233956 | 53 | 87 | 0.9 | 1.7 | 0.00 | 0.00 | 0.00 | 60 | 1016.0 |
| 20260502233456 | 53 | 127 | 1.7 | 2.6 | 0.00 | 0.00 | 0.00 | 60 | 1015.7 |
| 20260502232953 | 53 | 162 | 0.0 | 1.7 | 0.00 | 0.00 | 0.00 | 60 | 1015.7 |
| 20260502232449 | 52 | 166 | 1.7 | 2.6 | 0.00 | 0.00 | 0.00 | 61 | 1015.9 |
| 20260502231946 | 51 | 0 | 0.9 | 4.3 | 0.00 | 0.00 | 0.00 | 62 | 1015.7 |
| 20260502231443 | 52 | 348 | 2.6 | 4.3 | 0.00 | 0.00 | 0.00 | 61 | 1015.5 |
| 20260502230942 | 52 | 193 | 2.6 | 4.3 | 0.00 | 0.00 | 0.00 | 61 | 1015.8 |
| 20260502230439 | 52 | 313 | 2.6 | 5.2 | 0.00 | 0.00 | 0.00 | 62 | 1015.8 |
| 20260502225937 | 52 | 289 | 0.9 | 4.3 | 0.00 | 0.00 | 0.00 | 61 | 1015.8 |
| 20260502225433 | 53 | 315 | 1.7 | 1.7 | 0.00 | 0.00 | 0.00 | 60 | 1015.8 |
| 20260502224930 | 53 | 112 | 0.9 | 4.3 | 0.00 | 0.00 | 0.00 | 59 | 1015.8 |
| 20260502224426 | 53 | 242 | 1.7 | 2.6 | 0.00 | 0.00 | 0.00 | 61 | 1015.9 |
| 20260502223923 | 53 | 45 | 1.7 | 5.2 | 0.00 | 0.00 | 0.00 | 61 | 1015.6 |
| 20260502223421 | 53 | 42 | 1.7 | 2.6 | 0.00 | 0.00 | 0.00 | 61 | 1015.7 |
| 20260502222919 | 53 | 86 | 1.7 | 5.2 | 0.00 | 0.00 | 0.00 | 62 | 1015.7 |
| 20260502222416 | 53 | 18 | 2.6 | 7.8 | 0.00 | 0.00 | 0.00 | 60 | 1015.9 |
| 20260502221916 | 54 | 7 | 2.6 | 5.2 | 0.00 | 0.00 | 0.00 | 60 | 1015.8 |
| 20260502221413 | 53 | 1 | 2.6 | 6.1 | 0.00 | 0.00 | 0.00 | 61 | 1015.7 |
| 20260502220910 | 53 | 246 | 2.6 | 7.8 | 0.00 | 0.00 | 0.00 | 62 | 1015.6 |
| 20260502220406 | 53 | 349 | 2.6 | 8.7 | 0.00 | 0.00 | 0.00 | 61 | 1015.7 |
| 20260502215903 | 53 | 95 | 1.7 | 5.2 | 0.00 | 0.00 | 0.00 | 61 | 1015.7 |